Results By Division


Marshman® Triathlon Presented by Kinetic PT

Race Date: Sunday September 14, 2008
Description: 1/4 Mile Swim~12.5 Mile Bike~2 Mile Run
Race Category: Triathlon
# Entrants in Division: 23

Choose:
 Division
Place
Overall
Place
NameCityStateRace AgeGenderDivisionTimeBib#
View 1 5 Coleman, Matthew Philadelphia PA 28 M 25-29 0:56:34 103
View 2 7 Henkel, David Mont Clare PA 28 M 25-29 0:58:07 114
View 3 15 Gantz, Jacob Philadelphia PA 28 M 25-29 1:01:03 141
View 4 40 Bergman, Jeremy West Chester PA 27 M 25-29 1:05:37 17
View 5 51 Stephens, Charlie Conshohocken PA 28 M 25-29 1:06:39 60
View 6 61 Niemiec, Kevin West Chester PA 25 M 25-29 1:07:33 44
View 7 74 Adams, Matthew West Chester PA 27 M 25-29 1:08:46 99
View 8 101 Mize, Michael Downingtown PA 28 M 25-29 1:10:56 14
View 9 104 Smokowicz, Andrew Lancaster PA 27 M 25-29 1:11:07 100
View 10 108 Niemiec, David Philadelphia PA 27 M 25-29 1:11:20 41
View 11 123 Urgo, Keith Wayne PA 29 M 25-29 1:12:09 49
View 12 149 Jestice, Kevin Downingtown PA 28 M 25-29 1:14:15 28
View 13 151 Kruse, Justin Thorndale PA 27 M 25-29 1:14:20 93
View 14 162 Mcguire, Dave Norristown PA 29 M 25-29 1:15:02 123
View 15 219 Hamilton, Colin Downingtown PA 29 M 25-29 1:19:17 4
View 16 258 Mcbrearty, Dan Philadelphia PA 28 M 25-29 1:22:00 58
View 17 287 Munyan, Derek Mont Clare PA 29 M 25-29 1:23:46 140
View 18 308 Kucera, Jonathan Downingtown PA 27 M 25-29 1:25:56 66
View 19 320 Cavanaugh, Michael Philadelphia PA 26 M 25-29 1:26:47 15
View 20 374 Durborow, Robert West Chester PA 27 M 25-29 1:30:40 56
View 21 455 Gatano, Jeff Harrisburg PA 28 M 25-29 1:43:46 37
View 22 463 Mcgee, Jason Phoenixville PA 27 M 25-29 1:46:31 55
View 23 495 Guzzardo, Joseph Philadelphia PA 29 M 25-29 87